FW7092 Weather Reports


Display with metric or nautical units.
time (UTC)temp
F
wind
direction
speed
MPH
gust
MPH
rain 1hr
in
rain 24hr
in
rain mn
in
humidity
%
barometer
mb
20260508093056 45 217 5.0 6.0 0.00 0.00 0.00 91 1014.0
20260508092553 45 213 5.0 7.0 0.00 0.00 0.00 91 1014.4
20260508092052 45 217 5.0 6.0 0.00 0.00 0.00 91 1014.3
20260508091549 45 217 4.0 5.0 0.00 0.00 0.00 92 1014.2
20260508091045 44 213 3.0 5.0 0.00 0.00 0.00 92 1014.2
20260508090543 45 215 3.0 3.0 0.00 0.00 0.00 91 1014.2
20260508090040 44 213 5.0 6.0 0.00 0.00 0.00 92 1014.3
20260508085536 44 220 3.0 5.0 0.00 0.00 0.00 92 1014.3
20260508085034 44 227 2.0 2.0 0.00 0.00 0.00 92 1014.4
20260508084530 44 218 2.0 3.0 0.00 0.00 0.00 92 1014.3
20260508084028 44 232 3.0 3.0 0.00 0.00 0.00 92 1014.3
20260508083525 44 216 3.0 3.0 0.00 0.00 0.00 92 1014.3
20260508083021 44 233 2.0 3.0 0.00 0.00 0.00 92 1014.2
20260508082517 44 213 4.0 5.0 0.00 0.00 0.00 92 1014.4
20260508082015 44 229 3.0 3.0 0.00 0.00 0.00 92 1014.4
20260508081512 45 209 4.0 5.0 0.00 0.00 0.00 92 1014.3
20260508081007 45 222 3.0 5.0 0.00 0.00 0.00 91 1014.4
20260508080506 45 221 5.0 6.0 0.00 0.00 0.00 92 1014.5
20260508080003 45 230 3.0 3.0 0.00 0.00 0.00 92 1014.6
20260508075500 45 232 3.0 3.0 0.00 0.00 0.00 93 1014.5
20260508074957 45 224 2.0 3.0 0.00 0.00 0.00 93 1014.8
20260508074455 44 221 3.0 5.0 0.00 0.00 0.00 93 1014.5
20260508073951 44 223 3.0 3.0 0.00 0.00 0.00 93 1014.4
20260508073449 44 230 2.0 2.0 0.00 0.00 0.00 93 1014.5
20260508072946 44 222 1.0 2.0 0.00 0.00 0.00 93 1014.9
20260508072442 44 215 1.0 2.0 0.00 0.00 0.00 93 1014.6
20260508071939 44 220 2.0 3.0 0.00 0.00 0.00 92 1014.6
20260508071437 44 229 2.0 3.0 0.00 0.00 0.00 92 1014.6
20260508070935 44 225 2.0 3.0 0.00 0.00 0.00 91 1014.6
20260508070432 44 216 1.0 2.0 0.00 0.00 0.00 91 1014.5
20260508065930 44 215 2.0 2.0 0.00 0.00 0.00 91 1014.8
20260508065428 44 217 2.0 2.0 0.00 0.00 0.00 91 1014.6
20260508064925 44 213 2.0 2.0 0.00 0.00 0.00 91 1014.9
20260508064423 44 213 2.0 2.0 0.00 0.00 0.00 91 1014.7
20260508063920 44 217 2.0 3.0 0.00 0.00 0.00 91 1014.8
20260508063418 44 210 3.0 5.0 0.00 0.00 0.00 91 1014.8
20260508062915 43 211 3.0 3.0 0.00 0.00 0.00 90 1014.9
20260508062413 43 213 3.0 3.0 0.00 0.00 0.00 90 1014.9
20260508061910 44 212 3.0 6.0 0.00 0.00 0.00 89 1014.9
20260508061407 44 214 3.0 5.0 0.00 0.00 0.00 89 1014.9
20260508060903 44 215 3.0 3.0 0.00 0.00 0.00 88 1014.9
20260508060401 45 205 4.0 6.0 0.00 0.00 0.00 88 1015.0
20260508055901 45 222 5.0 7.0 0.00 0.00 0.00 87 1015.1
20260508055359 45 231 5.0 7.0 0.00 0.00 0.00 86 1015.0
20260508054855 45 219 5.0 8.0 0.00 0.00 0.00 85 1015.0
20260508054353 46 215 5.0 8.0 0.00 0.00 0.00 84 1015.2
20260508053849 46 233 6.0 9.0 0.00 0.00 0.00 83 1015.1
20260508053347 46 214 6.0 8.0 0.00 0.00 0.00 85 1015.4
20260508052844 46 232 5.0 7.0 0.00 0.00 0.00 85 1015.4
20260508052342 46 214 6.0 8.0 0.00 0.00 0.00 84 1015.2
20260508051837 47 220 5.0 11.0 0.00 0.00 0.00 83 1015.2
20260508051333 47 247 5.0 9.0 0.00 0.00 0.00 83 1015.2
20260508050829 47 212 5.0 8.0 0.00 0.00 0.00 82 1015.4
20260508050327 48 240 5.0 8.0 0.00 0.00 0.00 81 1015.4
20260508045822 48 218 7.0 8.0 0.00 0.00 0.00 81 1015.2
20260508045320 48 226 7.0 9.0 0.00 0.00 0.00 80 1015.2
20260508044818 48 234 7.0 9.0 0.00 0.00 0.00 79 1015.4
20260508044314 48 205 10.0 10.0 0.00 0.00 0.00 78 1015.1
20260508043810 48 207 7.0 10.0 0.00 0.00 0.00 76 1015.0
20260508043308 48 204 9.0 10.0 0.00 0.00 0.00 75 1014.9
20260508042804 48 215 6.0 8.0 0.00 0.00 0.00 75 1015.1
20260508042306 47 232 6.0 8.0 0.00 0.00 0.00 78 1015.0
20260508041758 47 216 4.0 5.0 0.00 0.00 0.00 79 1015.1
20260508041255 47 207 4.0 5.0 0.00 0.00 0.00 80 1015.4
20260508040751 47 214 4.0 5.0 0.00 0.00 0.00 80 1015.2
20260508040248 47 211 3.0 5.0 0.00 0.00 0.00 81 1015.4
20260508035746 46 215 3.0 5.0 0.00 0.00 0.00 82 1015.4
20260508035243 46 211 2.0 3.0 0.00 0.00 0.00 83 1015.4
20260508034740 46 211 2.0 2.0 0.00 0.00 0.00 83 1015.4
20260508034237 46 213 2.0 2.0 0.00 0.00 0.00 83 1015.4
20260508033734 47 210 2.0 2.0 0.00 0.00 0.00 81 1015.2
20260508033232 47 215 3.0 3.0 0.00 0.00 0.00 81 1015.4
20260508032730 46 212 3.0 3.0 0.00 0.00 0.00 81 1015.5
20260508032227 47 215 3.0 3.0 0.00 0.00 0.00 81 1015.4
20260508031723 47 213 2.0 3.0 0.00 0.00 0.00 80 1015.5
20260508031219 47 212 3.0 3.0 0.00 0.00 0.00 80 1015.6
20260508030716 47 212 3.0 3.0 0.00 0.00 0.00 80 1015.6
20260508030214 47 209 3.0 3.0 0.00 0.00 0.00 80 1015.6
20260508025710 47 222 3.0 3.0 0.00 0.00 0.00 78 1015.9
20260508025207 47 216 3.0 5.0 0.00 0.00 0.00 77 1015.8
20260508024703 47 213 3.0 5.0 0.00 0.00 0.00 77 1015.7
20260508024200 48 208 4.0 5.0 0.00 0.00 0.00 77 1015.9
20260508023656 48 210 4.0 5.0 0.00 0.00 0.00 76 1015.9
20260508023154 48 212 3.0 3.0 0.00 0.00 0.00 77 1015.7
20260508022649 48 211 2.0 2.0 0.00 0.00 0.00 76 1015.8
20260508022147 48 211 2.0 2.0 0.00 0.00 0.00 75 1015.9
20260508021643 48 217 4.0 5.0 0.00 0.00 0.00 73 1015.8
20260508021138 48 211 3.0 3.0 0.00 0.00 0.00 74 1015.9
20260508020637 48 216 4.0 5.0 0.00 0.00 0.00 73 1015.9
20260508020134 49 211 4.0 6.0 0.00 0.00 0.00 72 1015.9
20260508015631 49 224 4.0 6.0 0.00 0.00 0.00 71 1016.0
20260508015128 49 231 4.0 6.0 0.00 0.00 0.00 70 1015.8
20260508014624 49 236 4.0 6.0 0.00 0.00 0.00 70 1016.0
20260508014121 49 236 5.0 8.0 0.00 0.00 0.00 69 1015.8
20260508013617 50 224 6.0 8.0 0.00 0.00 0.00 68 1015.8
20260508013114 50 236 5.0 9.0 0.00 0.00 0.00 67 1015.6
20260508012611 50 223 6.0 8.0 0.00 0.00 0.00 66 1015.6
20260508012108 50 241 10.0 11.0 0.00 0.00 0.00 63 1015.6
20260508011607 50 241 10.0 11.0 0.00 0.00 0.00 63 1015.7
20260508011104 50 205 10.0 13.0 0.00 0.00 0.00 63 1015.6
20260508010600 50 213 10.0 13.0 0.00 0.00 0.00 63 1015.6
20260508010058 51 240 13.0 15.0 0.00 0.00 0.00 61 1015.6
20260508005555 51 242 9.0 13.0 0.00 0.00 0.00 60 1015.6
20260508005051 51 232 12.0 14.0 0.00 0.00 0.00 60 1015.5
20260508004547 51 246 12.0 17.0 0.00 0.00 0.00 59 1015.2
20260508004044 52 226 11.0 16.0 0.00 0.00 0.00 57 1015.2
20260508003540 52 231 11.0 16.0 0.00 0.00 0.00 57 1015.2
20260508003038 53 224 11.0 21.0 0.00 0.00 0.00 55 1015.0
20260508002534 53 220 10.0 14.0 0.00 0.00 0.00 53 1015.1
20260508002032 53 231 7.0 15.0 0.00 0.00 0.00 53 1014.9
20260508001527 54 230 9.0 13.0 0.00 0.00 0.00 52 1014.9
20260508001024 54 242 11.0 15.0 0.00 0.00 0.00 49 1015.0
20260508000520 55 235 7.0 9.0 0.00 0.00 0.00 47 1014.9
20260508000017 55 231 8.0 10.0 0.00 0.00 0.00 46 1014.7
20260507235514 55 245 5.0 6.0 0.00 0.00 0.00 48 1014.8
20260507235011 55 234 7.0 14.0 0.00 0.00 0.00 45 1014.8
20260507234507 55 245 9.0 11.0 0.00 0.00 0.00 46 1014.7
20260507234004 55 246 5.0 9.0 0.00 0.00 0.00 46 1014.8
20260507233500 55 250 7.0 8.0 0.00 0.00 0.00 46 1014.8
20260507233000 55 243 6.0 9.0 0.00 0.00 0.00 47 1014.5
20260507232455 55 250 7.0 11.0 0.00 0.00 0.00 46 1014.7
20260507231953 55 246 9.0 11.0 0.00 0.00 0.00 46 1014.6
20260507231449 56 239 8.0 10.0 0.00 0.00 0.00 42 1014.7
20260507230946 56 256 10.0 13.0 0.00 0.00 0.00 42 1014.6
20260507230443 57 258 5.0 8.0 0.00 0.00 0.00 45 1014.7
20260507225938 58 248 5.0 6.0 0.00 0.00 0.00 40 1014.6
20260507225434 58 260 5.0 10.0 0.00 0.00 0.00 41 1014.5
20260507224931 57 262 5.0 7.0 0.00 0.00 0.00 42 1014.8
20260507224426 56 268 4.0 8.0 0.00 0.00 0.00 42 1014.7
20260507223923 56 243 5.0 9.0 0.00 0.00 0.00 42 1014.7
20260507223414 57 271 3.0 7.0 0.00 0.00 0.00 44 1014.8
20260507222911 55 252 5.0 8.0 0.00 0.00 0.00 45 1014.9
20260507222408 56 257 8.0 13.0 0.00 0.00 0.00 44 1014.9
20260507221905 58 243 3.0 6.0 0.00 0.00 0.00 43 1014.8
20260507221401 57 241 5.0 9.0 0.00 0.00 0.00 42 1014.8
20260507220857 56 252 6.0 10.0 0.00 0.00 0.00 43 1014.8
20260507220356 56 260 5.0 8.0 0.00 0.00 0.00 44 1014.9
20260507215852 58 245 7.0 10.0 0.00 0.00 0.00 46 1014.8
20260507215349 58 233 4.0 10.0 0.00 0.00 0.00 45 1014.8
20260507214846 56 270 10.0 14.0 0.00 0.00 0.00 42 1014.9
20260507214343 58 249 8.0 13.0 0.00 0.00 0.00 40 1014.9
20260507213838 58 267 8.0 8.0 0.00 0.00 0.00 39 1014.7
20260507213335 58 306 4.0 7.0 0.00 0.00 0.00 42 1014.6
20260507212832 58 291 7.0 10.0 0.00 0.00 0.00 40 1014.8
20260507212327 57 250 4.0 10.0 0.00 0.00 0.00 42 1014.7
20260507211824 57 236 7.0 11.0 0.00 0.00 0.00 41 1014.7
20260507211321 55 261 6.0 9.0 0.00 0.00 0.00 44 1014.8
20260507210818 57 330 5.0 10.0 0.00 0.00 0.00 41 1014.8
20260507210315 57 240 5.0 10.0 0.00 0.00 0.00 43 1014.8
20260507205811 56 257 4.0 10.0 0.00 0.00 0.00 43 1014.9
20260507205309 58 337 4.0 14.0 0.00 0.00 0.00 42 1015.0
20260507204804 58 262 9.0 17.0 0.00 0.00 0.00 44 1014.8
20260507204302 58 263 9.0 13.0 0.00 0.00 0.00 43 1014.9
20260507203800 56 271 4.0 11.0 0.00 0.00 0.00 46 1015.1
20260507203258 56 273 5.0 7.0 0.00 0.00 0.00 45 1015.1
20260507202753 56 276 5.0 7.0 0.00 0.00 0.00 46 1015.1
20260507202249 55 245 4.0 8.0 0.00 0.00 0.00 47 1015.1
20260507201744 56 231 4.0 9.0 0.00 0.00 0.00 45 1015.4
20260507201241 56 267 8.0 10.0 0.00 0.00 0.00 44 1015.2
20260507200737 56 27 7.0 14.0 0.00 0.00 0.00 43 1015.1
20260507200233 57 253 9.0 14.0 0.00 0.00 0.00 44 1015.1
20260507195730 56 265 3.0 6.0 0.00 0.00 0.00 47 1015.4
20260507195228 55 287 5.0 10.0 0.00 0.00 0.00 44 1015.4
20260507194724 56 334 5.0 11.0 0.00 0.00 0.00 46 1015.2
20260507194221 56 257 6.0 13.0 0.00 0.00 0.00 45 1015.5
20260507193718 57 242 12.0 16.0 0.00 0.00 0.00 44 1015.4
20260507193214 56 243 10.0 13.0 0.00 0.00 0.00 47 1015.6
20260507192710 57 256 11.0 16.0 0.00 0.00 0.00 43 1015.5
20260507192207 57 219 5.0 14.0 0.00 0.00 0.00 45 1015.2
20260507191703 56 284 3.0 6.0 0.00 0.00 0.00 44 1015.4
20260507191201 56 259 5.0 9.0 0.00 0.00 0.00 43 1015.4
20260507190657 55 249 5.0 10.0 0.00 0.00 0.00 44 1015.5
20260507190155 55 266 6.0 9.0 0.00 0.00 0.00 50 1015.7
20260507185653 57 249 8.0 11.0 0.00 0.00 0.00 47 1015.6
20260507185150 57 278 9.0 11.0 0.00 0.00 0.00 45 1015.4
20260507184648 57 245 2.0 10.0 0.00 0.00 0.00 49 1015.4
20260507184146 56 344 4.0 13.0 0.00 0.00 0.00 48 1015.5
20260507183642 56 323 3.0 11.0 0.00 0.00 0.00 46 1015.6
20260507183139 55 258 7.0 16.0 0.00 0.00 0.00 45 1015.7
20260507182636 56 257 14.0 18.0 0.00 0.00 0.00 48 1015.8
20260507182131 56 326 5.0 8.0 0.00 0.00 0.00 45 1015.8
20260507181628 56 285 8.0 11.0 0.00 0.00 0.00 45 1015.7
20260507181124 56 257 7.0 11.0 0.00 0.00 0.00 48 1015.7
20260507180621 56 302 11.0 14.0 0.00 0.00 0.00 44 1015.6
20260507180118 55 264 8.0 14.0 0.00 0.00 0.00 47 1015.8
20260507175614 55 256 9.0 10.0 0.00 0.00 0.00 50 1015.7
20260507175111 55 257 7.0 11.0 0.00 0.00 0.00 51 1015.8
20260507174608 54 331 6.0 13.0 0.00 0.00 0.00 51 1015.8
20260507174106 55 260 5.0 16.0 0.00 0.00 0.00 48 1016.1
20260507173603 55 245 11.0 15.0 0.00 0.00 0.00 51 1016.0
20260507173100 55 255 12.0 18.0 0.00 0.00 0.00 51 1015.9
20260507172556 55 303 6.0 10.0 0.00 0.00 0.00 49 1016.0
20260507172053 55 264 9.0 14.0 0.00 0.00 0.00 51 1015.9
20260507171548 55 247 10.0 15.0 0.00 0.00 0.00 52 1015.9
20260507171046 54 252 11.0 16.0 0.00 0.00 0.00 51 1016.0
20260507170543 55 247 9.0 14.0 0.00 0.00 0.00 51 1016.0
20260507170040 55 249 10.0 11.0 0.00 0.00 0.00 51 1016.1
20260507165535 54 274 6.0 11.0 0.00 0.00 0.00 54 1016.1
20260507165032 55 280 3.0 8.0 0.00 0.00 0.00 52 1016.3
20260507164528 54 256 9.0 15.0 0.00 0.00 0.00 53 1016.3
20260507164025 54 237 8.0 11.0 0.00 0.00 0.00 52 1016.3
20260507163522 54 250 9.0 14.0 0.00 0.00 0.00 55 1016.3
20260507163020 53 268 7.0 15.0 0.00 0.00 0.00 52 1016.4
20260507162515 53 269 10.0 15.0 0.00 0.00 0.00 51 1016.3
20260507162012 53 232 7.0 11.0 0.00 0.00 0.00 58 1016.1
20260507161508 54 260 9.0 10.0 0.00 0.00 0.00 58 1016.3
20260507161005 54 257 9.0 14.0 0.00 0.00 0.00 55 1016.3
20260507160501 55 225 7.0 11.0 0.00 0.00 0.00 53 1016.1
20260507155956 54 269 7.0 9.0 0.00 0.00 0.00 54 1016.3
20260507155453 52 247 11.0 13.0 0.00 0.00 0.00 58 1016.1
20260507154950 52 226 9.0 13.0 0.00 0.00 0.00 61 1016.3
20260507154447 52 260 9.0 13.0 0.00 0.00 0.00 56 1016.3
20260507153944 53 254 8.0 11.0 0.00 0.00 0.00 57 1016.3
20260507153441 53 235 9.0 10.0 0.00 0.00 0.00 60 1016.4
20260507152937 53 250 5.0 7.0 0.00 0.00 0.00 59 1016.3
20260507152433 52 265 8.0 9.0 0.00 0.00 0.00 63 1016.3
20260507151929 53 241 9.0 14.0 0.00 0.00 0.00 59 1016.3
20260507151426 53 248 5.0 8.0 0.00 0.00 0.00 59 1016.2
20260507150923 52 248 8.0 9.0 0.00 0.00 0.00 60 1016.1
20260507150420 51 245 10.0 11.0 0.00 0.00 0.00 63 1016.2
20260507145916 52 258 8.0 9.0 0.00 0.00 0.00 63 1016.2
20260507145412 52 273 7.0 9.0 0.00 0.00 0.00 59 1016.2
20260507144909 52 254 4.0 6.0 0.00 0.00 0.00 65 1016.2
20260507144406 51 237 8.0 11.0 0.00 0.00 0.00 61 1016.1
20260507143903 51 289 5.0 8.0 0.00 0.00 0.00 66 1016.2
20260507143400 51 244 9.0 10.0 0.00 0.00 0.00 64 1016.2
20260507142857 50 255 5.0 9.0 0.00 0.00 0.00 66 1016.2
20260507142353 50 255 4.0 8.0 0.00 0.00 0.00 68 1016.1
20260507141850 50 242 5.0 7.0 0.00 0.00 0.00 67 1016.2
20260507141346 50 271 7.0 8.0 0.00 0.00 0.00 66 1016.2
20260507140843 50 245 5.0 7.0 0.00 0.00 0.00 70 1016.3
20260507140339 49 249 4.0 8.0 0.00 0.00 0.00 70 1016.3
20260507135838 50 243 3.0 5.0 0.00 0.00 0.00 71 1016.4
20260507135334 49 235 3.0 6.0 0.00 0.00 0.00 70 1016.2
20260507134831 49 235 4.0 6.0 0.00 0.00 0.00 70 1016.4
20260507134327 49 229 2.0 6.0 0.00 0.00 0.00 71 1016.5
20260507133823 48 244 4.0 5.0 0.00 0.00 0.00 71 1016.4
20260507133319 48 258 2.0 7.0 0.00 0.00 0.00 70 1016.5
20260507132818 48 253 4.0 6.0 0.00 0.00 0.00 71 1016.5
20260507132314 48 235 4.0 6.0 0.00 0.00 0.00 74 1016.6
20260507131811 47 274 5.0 8.0 0.00 0.00 0.00 73 1016.6
20260507131308 47 258 5.0 7.0 0.00 0.00 0.00 75 1016.6
20260507130804 46 256 5.0 8.0 0.00 0.00 0.00 73 1016.7
20260507130302 46 254 3.0 7.0 0.00 0.00 0.00 78 1016.7
20260507125801 46 253 6.0 7.0 0.00 0.00 0.00 76 1016.7
20260507125258 45 231 3.0 7.0 0.00 0.00 0.00 78 1016.7
20260507124755 45 239 4.0 6.0 0.00 0.00 0.00 79 1016.7
20260507124251 45 229 5.0 6.0 0.00 0.00 0.00 79 1016.5
20260507123750 45 232 3.0 6.0 0.00 0.00 0.00 80 1016.7
20260507123247 45 227 3.0 5.0 0.00 0.00 0.00 82 1016.6
20260507122742 45 232 4.0 6.0 0.00 0.00 0.00 82 1016.5
20260507122238 45 249 3.0 5.0 0.00 0.00 0.00 83 1016.5
20260507121734 44 237 4.0 6.0 0.00 0.00 0.00 82 1016.5
20260507121230 44 236 3.0 6.0 0.00 0.00 0.00 83 1016.6
20260507120726 44 241 3.0 3.0 0.00 0.00 0.00 83 1016.6
20260507120224 44 247 2.0 3.0 0.00 0.00 0.00 85 1016.4
20260507115719 43 247 2.0 2.0 0.00 0.00 0.00 86 1016.4
20260507115216 43 231 1.0 2.0 0.00 0.00 0.00 87 1016.4
20260507114711 42 238 2.0 2.0 0.00 0.00 0.00 87 1016.5
20260507114209 42 250 3.0 3.0 0.00 0.00 0.00 88 1016.2
20260507113706 41 229 2.0 2.0 0.00 0.00 0.00 88 1016.2
20260507113203 41 231 1.0 2.0 0.00 0.00 0.00 89 1016.3
20260507112701 41 226 1.0 1.0 0.00 0.00 0.00 89 1016.2
20260507112157 40 219 1.0 1.0 0.00 0.00 0.00 89 1016.1
20260507111654 40 223 0.0 1.0 0.00 0.00 0.00 89 1015.8
20260507111151 40 230 1.0 2.0 0.00 0.00 0.00 89 1016.0
20260507110647 39 227 1.0 1.0 0.00 0.00 0.00 89 1015.8
20260507110144 39 230 1.0 2.0 0.00 0.00 0.00 88 1015.7
20260507105641 39 216 2.0 2.0 0.00 0.00 0.00 88 1015.8
20260507105136 39 212 2.0 2.0 0.00 0.00 0.00 87 1015.8
20260507104634 39 212 1.0 1.0 0.00 0.00 0.00 87 1015.7
20260507104125 39 217 1.0 1.0 0.00 0.00 0.00 88 1015.6
20260507103621 38 216 1.0 2.0 0.00 0.00 0.00 89 1015.7
20260507103118 38 215 1.0 2.0 0.00 0.00 0.00 88 1015.8
20260507102614 38 211 1.0 2.0 0.00 0.00 0.00 87 1015.6
20260507102110 39 215 2.0 2.0 0.00 0.00 0.00 87 1015.5
20260507101607 38 208 2.0 2.0 0.00 0.00 0.00 87 1015.7
20260507101102 39 210 2.0 2.0 0.00 0.00 0.00 86 1015.5
20260507100600 39 211 2.0 2.0 0.00 0.00 0.00 86 1015.6
20260507100058 39 213 2.0 2.0 0.00 0.00 0.00 86 1015.4
20260507095556 39 209 2.0 2.0 0.00 0.00 0.00 86 1015.4
20260507095052 39 210 2.0 2.0 0.00 0.00 0.00 86 1015.2
20260507094548 39 208 1.0 1.0 0.00 0.00 0.00 86 1015.4
20260507094045 39 212 2.0 2.0 0.00 0.00 0.00 85 1015.5
20260507093543 40 210 1.0 2.0 0.00 0.00 0.00 85 1015.4